User: anonymous   Login
Location: Unspecified
(0.0000°N, 0.0000°E)
Time: 22:30:29
(UTC+00:00)
Language:

KUIPER-00191 - Orbit

View from above orbital plane
View from above orbital plane
View from above satellite
View from above satellite

Ground track
Ground track

The orbit is defined by the following mean orbital elements,

1 67143U          26145.12849262 +.00000000 +00000-0 +40087-3 0 00008
2 67143  51.9005  95.1322 0000835  66.6705 293.4345 14.79958926    01
Epoch (UTC): 25 May 2026 03:05:01
Eccentricity: 0.0000835
inclination: 51.9005°
perigee height: 629 km
apogee height: 630 km
right ascension of ascending node: 95.1322°
argument of perigee: 66.6705°
revolutions per day: 14.79958926
mean anomaly at epoch: 293.4345°

The dashed part of the orbit path shows where the satellite is in the earth's shadow,  

DLR